sat.trackr.live / text

‹ back to catalog

CORVUS BC2

NORAD 42846 · 2017-042X

PAYLOAD ACTIVE UNKNOWN

§ Identity

Operator
Country
US
Launch date
2017-07-14
Launch site
TYMSC
Launch vehicle
Mass (kg)
RCS (m²)

Purposes: tech_demo

External: N2YO · Heavens-Above · Gunter

§ Orbital elements

Epoch: 2026-05-25T00:13:43.735872Z

Period
95.61 min
Inclination
97.4039°
Eccentricity
0.0013021
Mean motion
15.06116158 rev/d
Perigee alt
539.1 km
Apogee alt
557.1 km
Semi-major
6,926.2 km
B*
2.2294e-4
RAAN
307.2667°
Arg perigee
185.5996°
Mean anomaly
174.5088°
Rev number
48,357

§ Raw data

CORVUS BC21 42846U 17042X   26145.00953398  .00003206  00000+0  22294-3 0  99952 42846  97.4039 307.2667 0013021 185.5996 174.5088 15.06116158483573

JSON: /api/v1/satellites/42846 · /tle

For live sub-satellite position, see the globe view (requires WebGL).

§ Visibility from observer

Set your observer location to see the next 7 days of passes ≥ 10°. The values pass through the URL so the page stays shareable.

No JS? Fill the form by hand. The geolocation button needs JavaScript.

§ Radio — SatNOGS DB

ModeDescriptionDownlinkUplink
FM TLM 401.200 MHz
FM TLM (inactive) 400.175 MHz

2 transmitters · refreshed weekly from db.satnogs.org